This demonstration page uses our WeatherBlox Daily Observations layout. Learn more.

Left ArrowRight Arrow

39.92423, -83.80882

Hourly Observations for June 5, 2022

Temp ( °F °C ) Dew Point ( °F °C ) Humidity (%) Winds ( mph kmh ) Pressure ( in mb ) Visibility ( mi km ) Precip ( " mm )
12:56 am 00:56 Clear 58 14.4 47 8.3 67 67 E 6 9 29.94 1014 10 16 0.00 0.00
1:56 am 01:56 Clear 58 14.4 48 8.9 70 70 E 9 15 29.93 1014 10 16 0.00 0.00
2:56 am 02:56 Clear 59 15 47 8.3 64 64 ESE 10 17 29.92 1013 10 16 0.00 0.00
3:56 am 03:56 Clear 56 13.3 47 8.3 72 72 E 7 11 29.92 1013 10 16 0.00 0.00
4:56 am 04:56 Clear 54 12.2 48 8.9 80 80 E 6 9 29.93 1014 10 16 0.00 0.00
5:56 am 05:56 Clear 54 12.2 48 8.9 80 80 ESE 7 11 29.93 1014 10 16 0.00 0.00
6:56 am 06:56 Sunny 55 12.8 50 10 83 83 E 6 9 29.95 1014 10 16 0.00 0.00
7:56 am 07:56 Sunny 61 16.1 49 9.4 65 65 E 8 13 29.96 1014 10 16 0.00 0.00
8:56 am 08:56 Sunny 65 18.3 51 10.6 61 61 ESE 9 15 29.96 1015 10 16 0.00 0.00
9:56 am 09:56 Sunny 70 21.1 50 10 49 49 SE 9 15 29.96 1014 10 16 0.00 0.00
10:56 am 10:56 Sunny 73 22.8 51 10.6 46 46 SE 10 17 29.96 1014 10 16 0.00 0.00
11:56 am 11:56 Sunny 77 25 50 10 39 39 SSE 9 15 29.94 1014 10 16 0.00 0.00
12:56 pm 12:56 Sunny 79 26.1 51 10.6 38 38 SSE 7 11 29.93 1014 10 16 0.00 0.00
1:56 pm 13:56 Partly Cloudy 80 26.7 50 10 35 35 S 8 13 29.91 1013 10 16 0.00 0.00
2:56 pm 14:56 Sunny 82 27.8 47 8.3 29 29 SSE 10 17 29.90 1013 10 16 0.00 0.00
3:56 pm 15:56 Mostly Sunny 82 27.8 47 8.3 29 29 SE 10 17 29.88 1012 10 16 0.00 0.00
4:56 pm 16:56 Sunny 82 27.8 46 7.8 28 28 S 10 17 29.87 1012 10 16 0.00 0.00
5:56 pm 17:56 Mostly Sunny 80 26.7 49 9.4 34 34 S 5 7 29.87 1012 10 16 0.00 0.00
6:56 pm 18:56 Mostly Sunny 80 26.7 51 10.6 37 37 SSE 9 15 29.86 1011 10 16 0.00 0.00
7:56 pm 19:56 Sunny 77 25 52 11.1 42 42 SSE 6 9 29.86 1011 10 16 0.00 0.00
8:56 pm 20:56 Cloudy 74 23.3 54 12.2 50 50 SE 7 11 29.87 1012 10 16 0.00 0.00
9:56 pm 21:56 Clear 72 22.2 54 12.2 53 53 SE 9 15 29.87 1012 10 16 0.00 0.00
10:56 pm 22:56 Clear 69 20.6 54 12.2 59 59 SE 8 13 29.88 1012 10 16 0.00 0.00
11:56 pm 23:56 Clear 69 20.6 53 11.7 57 57 SE 9 15 29.86 1011 10 16 0.00 0.00

Powered by AerisWeather